Location: Helsinki
(60.1699°N, 24.9384°E)
Time: 23:21:46
(UTC+03:00)

Tiros 1 - Visible Passes

Search period start: 02 October 2022 00:00
Search period end: 12 October 2022 00:00
Orbit: 629 x 663 km, 48.4° (Epoch: 02 October)

Date Brightness Start Highest point End Pass type
(mag) Time Alt. Az. Time Alt. Az. Time Alt. Az.
02 Oct 9.2 04:17:32 15° SSE 04:17:32 15° SSE 04:18:53 10° SE visible
02 Oct 9.1 05:55:11 12° SW 05:56:26 13° SSW 05:58:43 10° S visible
03 Oct 9.2 04:42:20 15° SSE 04:42:20 15° SSE 04:43:44 10° SSE visible
04 Oct 9.3 05:07:13 12° S 05:07:13 12° S 05:08:05 10° S visible
